[[{"header":{"parameterUnit":"m.s-1","parameterCategory":1,"la1":30.2991,"la2":30.254,"lo1":-89.0895,"lo2":-89.0444,"dy":0.0017,"dx":0.0017,"nx":28,"ny":28,"refTime":"2025-07-03T21:00:00:Z","depth":0,"parameterNumber":2,"parameterNumberName":"U-component_of_WINDS"},"data":[0,0,0,0,0,0,0,0,0,0,0,0,0,0,0,0,0,0,0,0,0,0,0,0,0,0,0,0,0,0,0,0,0,0,0,0,0,0,0,0,0,0,0,0,0,0,0,0,0,0,0,0,0,0,0,0,0,0,-0.5958,-0.596,0,-0.6109,-0.6111,-0.6113,-0.614,-0.6139,-0.6137,-0.6136,-0.6298,-0.6303,-0.6309,0,0,0,0,0,0,0,0,0,0,0,0,0,-0.5698,-0.5703,-0.5958,-0.596,-0.5962,-0.6109,-0.6111,-0.6113,-0.614,-0.6138,-0.6137,-0.6135,-0.6296,-0.6303,-0.6309,0,0,0,0,0,0,0,0,0,0,0,0,0,-0.5827,-0.5704,-0.5958,-0.5993,-0.5997,-0.6109,-0.6111,-0.6114,-0.614,-0.6138,-0.6137,-0.6135,-0.6294,-0.6302,-0.631,-0.6399,0,0,-0.6335,-0.6339,0,0,0,0,0,0,0,0,-0.5819,-0.5836,-0.5986,-0.5991,-0.5996,-0.6104,-0.6079,-0.621,-0.6141,-0.6086,-0.6136,-0.6134,-0.6235,-0.6248,-0.6281,-0.6407,-0.6413,-0.6336,-0.6341,-0.6344,-0.6347,0,0,0,0,0,0,0,-0.581,-0.583,-0.6018,-0.5988,-0.5994,-0.6003,-0.6019,-0.6104,-0.617,-0.6091,-0.6093,-0.611,-0.6238,-0.6273,-0.6285,-0.6416,-0.6336,-0.6343,-0.6348,-0.6351,-0.6623,-0.6625,0,0,0,0,0,0,-0.5794,-0.5822,-0.6013,-0.6023,-0.5901,-0.6009,-0.6027,-0.6071,-0.6169,-0.6182,-0.6112,-0.6111,-0.626,-0.6275,-0.6291,-0.6402,-0.6344,-0.6352,-0.6357,-0.662,-0.6623,-0.6626,0,0,0,0,0,0,-0.5789,-0.5811,-0.6007,-0.5923,-0.5949,-0.6015,-0.6065,-0.6075,-0.611,-0.6185,-0.6197,-0.6135,-0.6259,-0.6279,-0.6371,-0.6408,-0.6356,-0.6363,-0.6618,-0.6621,-0.6624,-0.6625,0,0,0,0,0,0,-0.5781,-0.5809,-0.5842,-0.5924,-0.5953,-0.6084,-0.6067,-0.6079,-0.6124,-0.6124,-0.621,-0.6223,-0.6259,-0.6359,-0.638,-0.6418,-0.637,-0.6615,-0.6619,-0.6623,-0.6622,-0.6628,-0.6633,0,0,0,0,0,-0.5772,-0.5838,-0.5844,-0.5867,-0.5996,-0.6086,-0.6103,-0.6141,-0.6126,-0.6161,-0.6209,-0.622,-0.64,-0.6368,-0.6392,-0.6433,-0.6613,-0.6618,-0.6623,-0.6619,-0.6626,-0.6632,0,0,0,0,0,0,-0.5762,-0.5849,-0.5857,-0.5951,-0.601,-0.609,-0.6135,-0.6148,-0.6215,-0.6213,-0.626,-0.6279,-0.6369,-0.641,-0.6373,-0.6525,-0.6506,-0.6516,-0.6495,-0.6502,-0.6508,-0.6497,-0.6377,0,0,0,0,0,-0.577,-0.5834,-0.5907,-0.5983,-0.6012,-0.6068,-0.6109,-0.6133,-0.6198,-0.6224,-0.6279,-0.6343,-0.6414,-0.646,-0.653,-0.6627,-0.6647,-0.6667,-0.6673,-0.6677,-0.6686,-0.6741,-0.6751,-0.6642,-0.6642,-0.6642,0,0,-0.5789,-0.5844,-0.5882,-0.5982,-0.6032,-0.6098,-0.609,-0.6161,-0.6212,-0.6236,-0.6326,-0.6368,-0.6443,-0.6538,-0.6583,-0.6575,-0.672,-0.6683,-0.6686,-0.6693,-0.6747,-0.6758,-0.6767,-0.6646,-0.6645,-0.6645,0,0,-0.5857,-0.5904,-0.5973,-0.6022,-0.6095,-0.6132,-0.6148,-0.6226,-0.6254,-0.6344,-0.6363,-0.6425,-0.6547,-0.6599,-0.6642,-0.6728,-0.6741,-0.6749,-0.6779,-0.6832,-0.6841,-0.6849,-0.6881,-0.6892,-0.6758,-0.6758,-0.6758,0,-0.5872,-0.5971,-0.6007,-0.6077,-0.6122,-0.6143,-0.6214,-0.626,-0.6353,-0.6384,-0.6374,-0.6526,-0.6578,-0.6686,-0.6706,-0.674,-0.6761,-0.6741,-0.6836,-0.6845,-0.6853,-0.6884,-0.6896,-0.6758,-0.6758,-0.6758,-0.6758,0,-0.5986,-0.6055,-0.6102,-0.6188,-0.6238,-0.6308,-0.6356,-0.6402,-0.6421,-0.6459,-0.6552,-0.6614,-0.6697,-0.6724,-0.6745,-0.6835,-0.6828,-0.6826,-0.6809,-0.6863,-0.6893,-0.6905,-0.6759,-0.6759,-0.6759,-0.6759,0,0,-0.6055,-0.6159,-0.6176,-0.6215,-0.6297,-0.6352,-0.6423,-0.6501,-0.654,-0.6603,-0.6666,-0.6767,-0.6765,-0.6813,-0.684,-0.6886,-0.6952,-0.6879,-0.6882,-0.6892,-0.7057,-0.7059,-0.7072,-0.696,-0.6962,-0.6964,-0.7051,0,-0.6134,-0.626,-0.6294,-0.6401,-0.6466,-0.6487,-0.6549,-0.6607,-0.6644,-0.6706,-0.6748,-0.6819,-0.6811,-0.684,-0.6886,-0.6934,-0.6986,-0.6928,-0.7021,-0.7024,-0.7003,-0.7088,-0.7091,-0.717,-0.7063,-0.7065,-0.7067,0,-0.6244,-0.6307,-0.642,-0.6493,-0.6521,-0.6576,-0.6651,-0.6708,-0.6775,-0.6799,-0.6851,-0.6873,-0.695,-0.6926,-0.7033,-0.6993,-0.7033,-0.7062,-0.7066,-0.7078,-0.705,-0.7104,-0.7196,-0.7208,-0.7085,-0.7084,-0.7082,0,-0.6285,-0.6397,-0.648,-0.6513,-0.6599,-0.6638,-0.6676,-0.674,-0.6784,-0.685,-0.688,-0.6954,-0.6995,-0.7053,-0.7095,-0.7073,-0.7199,-0.7178,-0.7223,-0.7222,-0.7251,-0.7249,-0.7352,-0.7273,-0.7273,-0.7273,-0.7272,0,-0.6371,-0.644,-0.6499,-0.655,-0.6628,-0.6666,-0.6743,-0.6782,-0.6839,-0.6899,-0.6922,-0.6978,-0.7029,-0.7093,-0.7126,-0.7211,-0.7229,-0.7252,-0.7261,-0.7251,-0.7248,-0.7279,-0.7276,-0.7276,-0.7275,-0.7275,-0.7274,0,-0.643,-0.6472,-0.6563,-0.6637,-0.6657,-0.6711,-0.6775,-0.6826,-0.6863,-0.6939,-0.6959,-0.7018,-0.7094,-0.714,-0.7238,-0.726,-0.7354,-0.7359,-0.7331,-0.7335,-0.7377,-0.7373,-0.7506,-0.7526,-0.7432,-0.7433,-0.7433,0,-0.6483,-0.6536,-0.6614,-0.6655,-0.6693,-0.6758,-0.6803,-0.6843,-0.6889,-0.6968,-0.701,-0.7086,-0.715,-0.7271,-0.7324,-0.7399,-0.7407,-0.7448,-0.7419,-0.7408,-0.741,-0.7407,-0.7413,-0.7454,-0.7455,-0.7456,-0.7456,0,-0.6573,-0.6591,-0.6654,-0.6724,-0.6776,-0.6833,-0.6891,-0.6924,-0.6973,-0.7024,-0.7101,-0.715,-0.7248,-0.7325,-0.7403,-0.7445,-0.746,-0.7464,-0.7479,-0.7471,-0.7453,-0.7464,-0.7346,-0.7462,-0.7461,-0.7461,-0.7461,-0.746,-0.6633,-0.6681,-0.6743,-0.6812,-0.6858,-0.6911,-0.6962,-0.7004,-0.7068,-0.7149,-0.7169,-0.725,-0.7315,-0.7422,-0.7465,-0.753,-0.7524,-0.7545,-0.755,-0.7555,-0.7557,-0.744,-0.7544,-0.7544,-0.7544,-0.7544,-0.7544,0,-0.6725,-0.6765,-0.6828,-0.6907,-0.6961,-0.6966,-0.703,-0.7076,-0.7146,-0.7204,-0.7265,-0.7354,-0.7428,-0.7485,-0.7561,-0.7602,-0.7611,-0.7621,-0.762,-0.7629,-0.7557,-0.7537,-0.7613,-0.7613,-0.7613,-0.7613,-0.7613,-0.7613,-0.678,-0.6861,-0.6886,-0.6991,-0.7032,-0.7109,-0.7145,-0.7194,-0.7241,-0.7337,-0.7398,-0.7434,-0.7492,-0.7573,-0.7641,-0.7656,-0.7684,-0.7693,-0.771,-0.7642,-0.7635,-0.7627,-0.7609,-0.7699,-0.7699,-0.7777,-0.7778,-0.7779]},{"header":{"parameterUnit":"m.s-1","parameterCategory":1,"la1":30.2991,"la2":30.254,"lo1":-89.0895,"lo2":-89.0444,"dy":0.0017,"dx":0.0017,"nx":28,"ny":28,"refTime":"2025-07-03T21:00:00:Z","depth":0,"parameterNumber":3,"parameterNumberName":"V-component_of_WINDS"},"data":[0,0,0,0,0,0,0,0,0,0,0,0,0,0,0,0,0,0,0,0,0,0,0,0,0,0,0,0,0,0,0,0,0,0,0,0,0,0,0,0,0,0,0,0,0,0,0,0,0,0,0,0,0,0,0,0,0,0,-2.9455,-2.9455,0,-2.9488,-2.9488,-2.9488,-2.9452,-2.9451,-2.945,-2.9448,-2.9479,-2.9481,-2.9483,0,0,0,0,0,0,0,0,0,0,0,0,0,-2.9359,-2.9361,-2.9455,-2.9455,-2.9456,-2.9487,-2.9488,-2.9488,-2.9453,-2.9451,-2.9449,-2.9448,-2.9478,-2.9481,-2.9483,0,0,0,0,0,0,0,0,0,0,0,0,0,-2.9397,-2.9362,-2.9455,-2.9442,-2.9441,-2.9487,-2.9488,-2.9488,-2.9453,-2.9451,-2.9449,-2.9447,-2.9477,-2.948,-2.9483,-2.9543,0,0,-2.9493,-2.9494,0,0,0,0,0,0,0,0,-2.9395,-2.9401,-2.9443,-2.9443,-2.9442,-2.9464,-2.9465,-2.9507,-2.9453,-2.9448,-2.9448,-2.9446,-2.9475,-2.9478,-2.9489,-2.9545,-2.9546,-2.9493,-2.9495,-2.9496,-2.9497,0,0,0,0,0,0,0,-2.9392,-2.9399,-2.9468,-2.9444,-2.9443,-2.9433,-2.9437,-2.9473,-2.9473,-2.9449,-2.9446,-2.9451,-2.9475,-2.9486,-2.9489,-2.9546,-2.9493,-2.9496,-2.9498,-2.9499,-2.9652,-2.9654,0,0,0,0,0,0,-2.9392,-2.9397,-2.9467,-2.9469,-2.9413,-2.9437,-2.944,-2.9459,-2.9472,-2.9472,-2.9452,-2.9449,-2.9482,-2.9486,-2.949,-2.9561,-2.9496,-2.9499,-2.9501,-2.965,-2.9653,-2.9655,0,0,0,0,0,0,-2.939,-2.9398,-2.9465,-2.9432,-2.944,-2.9441,-2.9462,-2.9461,-2.9472,-2.9475,-2.9475,-2.9464,-2.948,-2.9486,-2.953,-2.9561,-2.9501,-2.9504,-2.9647,-2.9651,-2.9654,-2.9703,0,0,0,0,0,0,-2.9387,-2.9398,-2.9421,-2.9433,-2.9442,-2.9506,-2.9464,-2.9463,-2.9478,-2.9474,-2.9486,-2.9486,-2.9479,-2.9526,-2.9534,-2.9565,-2.9506,-2.9645,-2.9649,-2.9653,-2.9698,-2.9707,-2.9715,0,0,0,0,0,-2.9384,-2.9433,-2.9423,-2.9431,-2.9472,-2.9508,-2.9513,-2.9504,-2.9481,-2.9504,-2.9505,-2.9486,-2.9557,-2.9531,-2.9539,-2.9571,-2.9643,-2.9648,-2.9653,-2.9695,-2.9705,-2.9715,0,0,0,0,0,0,-2.9424,-2.9434,-2.9423,-2.9478,-2.9492,-2.9502,-2.9531,-2.9516,-2.9537,-2.9532,-2.952,-2.9523,-2.957,-2.9575,-2.9546,-2.963,-2.9596,-2.9603,-2.9625,-2.9635,-2.9643,-2.9641,-2.9509,0,0,0,0,0,-2.9439,-2.9469,-2.9476,-2.9524,-2.9532,-2.953,-2.9546,-2.9538,-2.9552,-2.9558,-2.9563,-2.9577,-2.9602,-2.9619,-2.9642,-2.9699,-2.9701,-2.9725,-2.9733,-2.974,-2.9746,-2.9776,-2.9786,-2.9671,-2.9671,-2.9671,0,0,-2.9471,-2.9481,-2.95,-2.9532,-2.9543,-2.9573,-2.9536,-2.9569,-2.9591,-2.9563,-2.9605,-2.9609,-2.9624,-2.9675,-2.9697,-2.968,-2.9778,-2.9747,-2.9752,-2.9754,-2.9782,-2.9793,-2.9802,-2.9675,-2.9674,-2.9674,0,0,-2.9544,-2.9555,-2.9596,-2.9607,-2.9624,-2.9622,-2.9632,-2.9644,-2.9646,-2.9688,-2.9668,-2.9693,-2.9737,-2.9748,-2.9759,-2.9837,-2.9819,-2.9845,-2.9888,-2.9917,-2.9926,-2.9934,-2.9961,-2.9971,-2.9851,-2.9851,-2.9851,0,-2.9581,-2.9627,-2.9618,-2.9653,-2.9668,-2.9644,-2.9685,-2.9696,-2.9719,-2.9729,-2.971,-2.9765,-2.9773,-2.9825,-2.9844,-2.9854,-2.9864,-2.9843,-2.9925,-2.9933,-2.9941,-2.9966,-2.9976,-2.9854,-2.9853,-2.9853,-2.9853,0,-2.9671,-2.9703,-2.9734,-2.9758,-2.9776,-2.9813,-2.9809,-2.9828,-2.9819,-2.9819,-2.9862,-2.9871,-2.9896,-2.9908,-2.9899,-2.9959,-2.9948,-2.9928,-2.9893,-2.9955,-2.9978,-2.9988,-2.9858,-2.9857,-2.9856,-2.9855,0,0,-2.9771,-2.9789,-2.9801,-2.9811,-2.9828,-2.9851,-2.9887,-2.9913,-2.9929,-2.9945,-2.9975,-3.0012,-2.9993,-3.0006,-2.9998,-3.0024,-3.0084,-3.0,-3.0,-3.0015,-3.015,-3.0165,-3.0176,-3.0072,-3.0074,-3.0076,-3.0148,0,-2.9844,-2.9908,-2.9901,-2.9961,-2.999,-2.9968,-2.9999,-3.0012,-3.0013,-3.0037,-3.0038,-3.0065,-3.0038,-3.0046,-3.007,-3.0071,-3.0111,-3.0066,-3.0099,-3.01,-3.0095,-3.0189,-3.0205,-3.0273,-3.0158,-3.0159,-3.016,0,-2.9938,-2.9959,-3.0022,-3.0034,-3.0046,-3.0074,-3.0096,-3.012,-3.0134,-3.0132,-3.0147,-3.0134,-3.0169,-3.0135,-3.0182,-3.0152,-3.0165,-3.0168,-3.017,-3.0172,-3.0134,-3.0193,-3.0295,-3.0305,-3.0175,-3.0174,-3.0173,0,-3.0004,-3.0047,-3.0091,-3.01,-3.0115,-3.0136,-3.0143,-3.0155,-3.017,-3.0189,-3.0199,-3.0221,-3.0233,-3.0251,-3.0244,-3.022,-3.0293,-3.0258,-3.0292,-3.0292,-3.0308,-3.0307,-3.0413,-3.0317,-3.0317,-3.0317,-3.0317,0,-3.0086,-3.0125,-3.012,-3.0147,-3.019,-3.0182,-3.0224,-3.0228,-3.0239,-3.0265,-3.0248,-3.0273,-3.0263,-3.0287,-3.0282,-3.0321,-3.0327,-3.0326,-3.0325,-3.0328,-3.0328,-3.0336,-3.033,-3.032,-3.0319,-3.0319,-3.0318,0,-3.0166,-3.0165,-3.0211,-3.0221,-3.0225,-3.0256,-3.0264,-3.0289,-3.0289,-3.0322,-3.0329,-3.0329,-3.0356,-3.0351,-3.0381,-3.0378,-3.0427,-3.042,-3.0423,-3.0421,-3.0456,-3.0452,-3.0569,-3.0584,-3.048,-3.0481,-3.0482,0,-3.0219,-3.0249,-3.0263,-3.0279,-3.0288,-3.0315,-3.0331,-3.0323,-3.034,-3.0358,-3.038,-3.0406,-3.0426,-3.0471,-3.0472,-3.0495,-3.0487,-3.0527,-3.049,-3.0493,-3.0487,-3.0485,-3.0488,-3.0534,-3.0535,-3.0536,-3.0537,0,-3.0312,-3.0309,-3.0333,-3.0357,-3.0377,-3.0395,-3.0411,-3.0425,-3.0418,-3.0438,-3.0466,-3.0482,-3.0513,-3.0538,-3.0559,-3.0565,-3.055,-3.0548,-3.0557,-3.056,-3.0561,-3.056,-3.0442,-3.0545,-3.0544,-3.0544,-3.0543,-3.0543,-3.0379,-3.0405,-3.0418,-3.0445,-3.0457,-3.0472,-3.0496,-3.0499,-3.0522,-3.0548,-3.0541,-3.0573,-3.0585,-3.0612,-3.062,-3.0644,-3.0629,-3.0642,-3.0646,-3.0649,-3.0653,-3.0558,-3.0648,-3.0647,-3.0647,-3.0647,-3.0647,0,-3.0471,-3.0479,-3.0504,-3.0527,-3.0548,-3.0533,-3.055,-3.0568,-3.0596,-3.0609,-3.063,-3.0662,-3.0686,-3.069,-3.0713,-3.0731,-3.0725,-3.0738,-3.0736,-3.0737,-3.0665,-3.0655,-3.0743,-3.0743,-3.0742,-3.0742,-3.0742,-3.0742,-3.0521,-3.0563,-3.0562,-3.0609,-3.0617,-3.0648,-3.0659,-3.0673,-3.0683,-3.072,-3.0741,-3.0743,-3.0752,-3.0776,-3.0797,-3.0798,-3.0806,-3.0822,-3.082,-3.0752,-3.0742,-3.0733,-3.0723,-3.0824,-3.0824,-3.089,-3.089,-3.0891]}]]